Location: Grieser Field
(39.7333°N, 81.7975°W)
Time: 13:44:59
(UTC-04:00)

Meteor 2-1 Rocket - Visible Passes

Search period start: 18 September 2014 00:00
Search period end: 28 September 2014 00:00
Orbit: 830 x 907 km, 81.3° (Epoch: 18 September)

Date Brightness Start Highest point End Pass type
(mag) Time Alt. Az. Time Alt. Az. Time Alt. Az.
18 Sep 4.9 21:25:12 36° ENE 21:25:12 36° ENE 21:29:44 10° NNE visible
18 Sep 6.0 23:07:32 29° WNW 23:07:40 29° WNW 23:12:44 10° NNW visible
19 Sep 4.7 21:17:49 39° E 21:17:49 39° E 21:23:11 10° NNE visible
19 Sep 6.0 23:00:08 27° W 23:01:08 28° WNW 23:06:09 10° NNW visible
20 Sep 4.7 21:10:06 37° ESE 21:11:11 40° E 21:16:38 10° NNE visible
20 Sep 6.1 22:52:23 22° WSW 22:54:35 28° WNW 22:59:33 10° NNW visible
21 Sep 4.7 21:01:37 24° SE 21:04:37 41° E 21:10:06 10° NNE visible
21 Sep 6.1 22:43:48 13° WSW 22:48:02 27° WNW 22:52:58 10° NNW visible
22 Sep 4.6 20:52:33 10° SSE 20:58:03 42° E 21:03:33 10° NNE visible
22 Sep 6.2 22:36:37 10° SW 22:41:29 26° WNW 22:46:22 10° NNW visible
23 Sep 4.6 20:45:57 10° SSE 20:51:29 43° E 20:57:00 10° NNE visible
23 Sep 6.3 22:30:07 10° SW 22:34:56 26° WNW 22:39:46 10° NNW visible
24 Sep 4.6 20:39:22 10° SSE 20:44:55 44° E 20:50:27 10° NNE visible
24 Sep 6.3 22:23:37 10° SW 22:28:23 25° WNW 22:33:10 10° NNW visible
25 Sep 4.6 20:32:47 10° SSE 20:38:21 45° E 20:43:54 10° NNE visible
25 Sep 6.4 22:17:07 10° SW 22:21:50 25° WNW 22:26:34 10° NNW visible
26 Sep 4.5 20:26:11 10° SSE 20:31:47 46° E 20:37:21 10° NNE visible
26 Sep 6.4 22:10:37 10° WSW 22:15:18 24° WNW 22:19:58 10° NNW visible
27 Sep 4.5 20:19:36 10° SSE 20:25:13 47° E 20:30:48 10° NNE visible
27 Sep 6.5 22:04:08 10° WSW 22:08:45 23° WNW 22:13:21 10° NNW visible
